Weather in Ostrava

Czech Republic     49°50′10″N   18°16′40″E
temp.,
°C
wind,
m/s
gust,
m/s
humid.,
%
clouds,
%
prec.,
mm/h
press.,
hPa
HPBL,
m
23 september, thu
thu2323:00+9w228490 0.1 102570
02:00+9sw228299 0.1 102463
05:00+7ssw3586100 0.0 102395
08:00+9ssw478346 0.0 1022224
11:00+14sw677099 0.0 1020712
14:00+17sw7961100 0.0 10181059
17:00+17sw61161100 0.0 1015639
20:00+15ssw61460100 0.0 1013467
24 september, fri
fri2423:00+15sw81755100 0.0 1011686
02:00+14sw81564100 0.0 1010685
05:00+15w71265100 0.0 1010855
08:00+13w51074100 0.3 1012477
11:00+16wnw5745100 0.0 10131243
14:00+18wnw563594 0.0 10131608
17:00+17wnw58455 0.0 1013625
20:00+12e126265 0.0 101659
25 september, sat
sat2523:00+13ssw3362100 0.0 101785
02:00+13sw3779100 0.0 1017201
05:00+14ssw487897 0.0 1017272
08:00+14ssw398314 0.0 1018297
11:00+19wsw68640 0.0 1018904
14:00+22wsw575537 0.0 10181477
17:00+22wsw355943 0.0 1017366
20:00+16ssw22750 0.0 101915
26 september, sun
sun2623:00+15ssw22790 0.0 102014
02:00+14s11830 0.0 102011
05:00+13sse118335 0.0 102011
08:00+15e117980 0.0 102030
11:00+20ne115969 0.0 1020430
14:00+23n125199 0.0 1019938
17:00+22ne235919 0.0 1018167
20:00+17e22855 0.0 101934
27 september, mon
mon2723:00+16sse1186100 0.0 101913
02:00+14ne118593 0.0 101812
05:00+13nne11885 0.0 101811
08:00+14nne01855 0.0 101845
11:00+20nne11635 0.0 1018400
14:00+23ne22535 0.0 1017864
17:00+21ene45645 0.0 1017419
20:00+16ene35835 0.0 1018107